DMSP 5D-2 F13 DEB, 40516

Orbit data source: Space-Track

DMSP 5D-2 F13 DEB, 40516 is space debris in SSO originally from a launch on Fri, 24 Mar 1995 UTC launched from the Air Force Western Test Range (AFWTR). Debris objects in space refer to the collection of defunct objects orbiting the Earth. Examples of debris include non-operational satellites, rocket bodies, and fragments generated from explosions, collisions, or faulty payload assembly.

Loading next visibility...
Identifier
40516, 1995-015DC
Orbit
SSO
Country
Flag of USUS
Related business
Manufacturer
Unknown
Mission
Spacecraft
Bus & Motor
Unknown
Mass
Unknown
Launch date (UTC)
1995-03-24 (31 years ago)
Launch vehicle
Unknown
Launch site
Air Force Western Test Range (AFWTR)
Object type
Payload
Rocket body
Debris
Shape & HBR
Unknown shape, 0.1 m
Radar Cross Section
Small (<0.1 m²)

Expand to show TLE details & history
Last TLE update: 1 day ago

TLE from 1 day ago
0 DMSP 5D-2 F13 DEB
1 40516U 95015DC  26144.03851900  .00003245  00000-0  11030-2 0  9990
2 40516  98.7799 180.3748 0023042 189.9635 170.1096 14.37151242579005
Epoch: 2026-05-24T00:55Z
TLE epoch observation values (Epoch: 2026-05-24T00:55:28.041Z)
Latitude
-0.00012°
Longitude
-75.13842°
Altitude
787.088 km
Speed
7.452 km/s
True Right ascension
12h 01m 29s
True Declination
0° 00' 00"
Sunlit
Object was in full shadow at epoch
Visualization orbit readout
Latitude
Unknown
Longitude
Unknown
Altitude
Unknown
Speed
Unknown
Apparent Right ascension
Unknown
Apparent Declination
Unknown
Sunlit
N/A
Visualization observer readout
Local Sidereal Time
09:39:26
Azimuth
Unknown
Elevation
Unknown
Doppler factor
Unknown
Orbital elements
Apogee altitude
781.525 km
Perigee altitude
748.606 km
Semi-major axis
7,143.202 km
Eccentricity
0.0023
Inclination
98.7799°
RAAN
180.3748°
Arg. of periapsis
189.9635°
True anomaly
170.15482°
Mean anomaly
170.1096°
Eccentric anomaly
170.13223°
Mean motion
3.59504 °/min
Orbital period
100.14 mins
BSTAR
0.001103
Loading maneuver chart data...
Computing Atmospheric mass density...

Documentation

Showing up to 5 results
|